This is the latest recevied weather packets stored in our database for station/object IZ3LCH-13. If no packets are shown the sender has not sent any weather packets the latest 1 day(s).
| Time | Temp. | Humidity | Pressure | Rain* | Wind** | Luminosity | Snow |
|---|---|---|---|---|---|---|---|
| 1777965303 | 15.56° C | 72% | 1013.5 hPa | 0 mm | 1.34 m/s, 121° | - | - |
| 1777965003 | 15.56° C | 72% | 1013.9 hPa | 0 mm | 1.34 m/s, 126° | - | - |
| 1777964703 | 15.56° C | 73% | 1013.9 hPa | 0 mm | 1.34 m/s, 127° | - | - |
| 1777964403 | 15.56° C | 72% | 1013.8 hPa | 0 mm | 1.34 m/s, 133° | - | - |
| 1777964103 | 15.56° C | 73% | 1013.7 hPa | 0 mm | 0.89 m/s, 137° | - | - |
| 1777963803 | 15.56° C | 73% | 1013.8 hPa | 0 mm | 0.89 m/s, 132° | - | - |
| 1777963503 | 15.56° C | 74% | 1013.8 hPa | 0 mm | 0.89 m/s, 132° | - | - |
| 1777963203 | 15° C | 74% | 1013.4 hPa | 0 mm | 0.89 m/s, 129° | - | - |
| 1777962903 | 15° C | 74% | 1013.4 hPa | 0 mm | 0.89 m/s, 129° | - | - |
| 1777962603 | 15° C | 74% | 1013.5 hPa | 0 mm | 0.89 m/s, 136° | - | - |
| 1777962303 | 15° C | 74% | 1013.4 hPa | 0 mm | 0.89 m/s, 135° | - | - |
| 1777962003 | 15° C | 74% | 1013.5 hPa | 0 mm | 0.89 m/s, 134° | - | - |
| 1777961703 | 15° C | 74% | 1013.4 hPa | 0 mm | 1.34 m/s, 138° | - | - |
| 1777961403 | 14.44° C | 75% | 1013.5 hPa | 0 mm | 1.34 m/s, 139° | - | - |
| 1777961103 | 14.44° C | 75% | 1013.6 hPa | 0 mm | 1.34 m/s, 139° | - | - |
| 1777960803 | 14.44° C | 74% | 1013.3 hPa | 0 mm | 1.34 m/s, 138° | - | - |
| 1777960503 | 14.44° C | 74% | 1013.6 hPa | 0 mm | 1.34 m/s, 137° | - | - |
| 1777960203 | 14.44° C | 74% | 1013.3 hPa | 0 mm | 1.34 m/s, 135° | - | - |
| 1777959903 | 14.44° C | 72% | 1013.2 hPa | 0 mm | 1.34 m/s, 134° | - | - |
| 1777959603 | 14.44° C | 72% | 1013.1 hPa | 0 mm | 0.45 m/s, 131° | - | - |
| 1777959303 | 14.44° C | 72% | 1013 hPa | 0 mm | 0.45 m/s, 121° | - | - |
| 1777959003 | 14.44° C | 72% | 1013 hPa | 0 mm | 0.89 m/s, 132° | - | - |
| 1777958703 | 14.44° C | 72% | 1013 hPa | 0 mm | 0.89 m/s, 143° | - | - |
| 1777958403 | 14.44° C | 71% | 1013.2 hPa | 0 mm | 0.45 m/s, 140° | - | - |
| 1777958103 | 14.44° C | 71% | 1012.9 hPa | 0 mm | 0.45 m/s, 83° | - | - |
* Rain latest hour (hover to see other rain measurements)
** Current wind speed in m/s (hover to see current wind gust speed)